Time,TemperatureF,DewpointF,PressureIn,WindDirection,WindDirectionDegrees,WindSpeedMPH,WindSpeedGustMPH,Humidity,HourlyPrecipIn,Conditions,Clouds,dailyrainin,SoftwareType,DateUTC
2013-05-20 00:00:00,51.8,37.5,29.90,SW,215,0.0,0.0,58,0.00,CLR,,0.00,WeatherDisplay:10.37,2013-05-19 14:00:00,
2013-05-20 00:05:00,51.8,37.5,29.90,SW,214,0.0,0.0,58,0.00,CLR,,0.00,WeatherDisplay:10.37,2013-05-19 14:05:00,
2013-05-20 00:10:00,51.7,37.4,29.90,SW,224,0.0,0.0,58,0.00,CLR,,0.00,WeatherDisplay:10.37,2013-05-19 14:10:00,
2013-05-20 00:15:00,51.6,37.3,29.91,SW,225,0.0,0.0,58,0.00,CLR,,0.00,WeatherDisplay:10.37,2013-05-19 14:15:00,
2013-05-20 00:20:00,51.6,37.3,29.90,SW,225,0.0,0.0,58,0.00,CLR,,0.00,WeatherDisplay:10.37,2013-05-19 14:20:00,
2013-05-20 00:25:00,51.5,37.2,29.90,SW,224,0.0,0.0,58,0.00,CLR,,0.00,WeatherDisplay:10.37,2013-05-19 14:25:00,
2013-05-20 00:30:00,51.4,37.1,29.90,SW,232,0.0,0.0,58,0.00,CLR,,0.00,WeatherDisplay:10.37,2013-05-19 14:30:00,
2013-05-20 00:35:00,51.4,37.1,29.90,SW,232,0.0,0.0,58,0.00,CLR,,0.00,WeatherDisplay:10.37,2013-05-19 14:35:00,
2013-05-20 00:40:00,51.1,37.2,29.90,SW,218,0.0,0.0,59,0.00,CLR,,0.00,WeatherDisplay:10.37,2013-05-19 14:40:00,
2013-05-20 00:45:00,51.1,37.2,29.90,SW,218,0.0,0.0,59,0.00,CLR,,0.00,WeatherDisplay:10.37,2013-05-19 14:45:00,
2013-05-20 00:50:00,51.0,37.1,29.90,SW,229,0.0,0.0,59,0.00,CLR,,0.00,WeatherDisplay:10.37,2013-05-19 14:50:00,
2013-05-20 00:55:00,50.9,37.1,29.90,SW,234,0.0,0.0,59,0.00,CLR,,0.00,WeatherDisplay:10.37,2013-05-19 14:55:00,
2013-05-20 01:00:00,50.7,36.9,29.90,SW,233,0.0,0.0,59,0.00,CLR,,0.00,WeatherDisplay:10.37,2013-05-19 15:00:00,
2013-05-20 01:05:00,50.7,36.9,29.90,SW,229,0.0,0.0,59,0.00,CLR,,0.00,WeatherDisplay:10.37,2013-05-19 15:05:00,
2013-05-20 01:10:00,50.7,36.9,29.90,SW,227,0.0,0.0,59,0.00,CLR,,0.00,WeatherDisplay:10.37,2013-05-19 15:10:00,
2013-05-20 01:15:00,50.7,36.9,29.90,SW,236,0.0,0.0,59,0.00,CLR,,0.00,WeatherDisplay:10.37,2013-05-19 15:15:00,
2013-05-20 01:20:00,50.7,37.3,29.90,SW,234,0.0,0.0,60,0.00,CLR,,0.00,WeatherDisplay:10.37,2013-05-19 15:20:00,
2013-05-20 01:25:00,50.7,37.3,29.90,SW,225,0.0,0.0,60,0.00,CLR,,0.00,WeatherDisplay:10.37,2013-05-19 15:25:00,
2013-05-20 01:30:00,50.7,37.3,29.91,SW,225,0.0,0.0,60,0.00,CLR,,0.00,WeatherDisplay:10.37,2013-05-19 15:30:00,
2013-05-20 01:35:00,50.5,37.2,29.91,SW,225,0.0,0.0,60,0.00,CLR,,0.00,WeatherDisplay:10.37,2013-05-19 15:35:00,
2013-05-20 01:40:00,50.5,37.2,29.90,SW,225,0.0,0.0,60,0.00,CLR,,0.00,WeatherDisplay:10.37,2013-05-19 15:40:00,
2013-05-20 01:45:00,50.5,37.2,29.90,SW,214,0.0,0.0,60,0.00,CLR,,0.00,WeatherDisplay:10.37,2013-05-19 15:45:00,
2013-05-20 01:50:00,50.4,37.0,29.90,SSW,204,0.0,0.0,60,0.00,CLR,,0.00,WeatherDisplay:10.37,2013-05-19 15:50:00,
2013-05-20 01:55:00,50.2,36.8,29.90,SW,215,0.0,0.0,60,0.00,CLR,,0.00,WeatherDisplay:10.37,2013-05-19 15:55:00,
2013-05-20 02:00:00,50.2,36.8,29.90,SW,225,0.0,0.0,60,0.00,CLR,,0.00,WeatherDisplay:10.37,2013-05-19 16:00:00,
2013-05-20 02:05:00,50.2,36.8,29.90,SW,218,0.0,0.0,60,0.00,CLR,,0.00,WeatherDisplay:10.37,2013-05-19 16:05:00,
2013-05-20 02:10:00,49.8,36.5,29.90,SSW,207,0.0,0.0,60,0.00,CLR,,0.00,WeatherDisplay:10.37,2013-05-19 16:10:00,
2013-05-20 02:15:00,49.8,36.5,29.90,SSW,208,0.0,0.0,60,0.00,CLR,,0.00,WeatherDisplay:10.37,2013-05-19 16:15:00,
2013-05-20 02:20:00,49.8,36.5,29.89,SSW,207,0.0,0.0,60,0.00,CLR,,0.00,WeatherDisplay:10.37,2013-05-19 16:20:00,
2013-05-20 02:25:00,49.6,36.7,29.90,SSW,208,0.0,0.0,61,0.00,CLR,,0.00,WeatherDisplay:10.37,2013-05-19 16:25:00,
2013-05-20 02:30:00,49.6,36.7,29.90,SW,218,0.0,0.0,61,0.00,CLR,,0.00,WeatherDisplay:10.37,2013-05-19 16:30:00,
2013-05-20 02:35:00,49.6,36.7,29.90,SW,222,0.0,0.0,61,0.00,CLR,,0.00,WeatherDisplay:10.37,2013-05-19 16:35:00,
2013-05-20 02:40:00,49.6,36.7,29.90,SW,233,0.0,0.0,61,0.00,CLR,,0.00,WeatherDisplay:10.37,2013-05-19 16:40:00,
2013-05-20 02:45:00,49.6,36.7,29.90,WSW,246,0.0,0.0,61,0.00,CLR,,0.00,WeatherDisplay:10.37,2013-05-19 16:45:00,
2013-05-20 02:50:00,49.6,36.7,29.91,West,260,0.0,0.0,61,0.00,CLR,,0.00,WeatherDisplay:10.37,2013-05-19 16:50:00,
2013-05-20 02:55:00,49.6,36.7,29.90,West,265,0.0,0.0,61,0.00,CLR,,0.00,WeatherDisplay:10.37,2013-05-19 16:55:00,
2013-05-20 03:00:00,49.6,36.7,29.90,West,270,0.0,0.0,61,0.00,CLR,,0.00,WeatherDisplay:10.37,2013-05-19 17:00:00,
2013-05-20 03:05:00,49.6,36.7,29.90,WNW,286,0.0,0.0,61,0.00,CLR,,0.00,WeatherDisplay:10.37,2013-05-19 17:05:00,
2013-05-20 03:10:00,49.6,36.7,29.90,WSW,258,0.0,0.0,61,0.00,CLR,,0.00,WeatherDisplay:10.37,2013-05-19 17:10:00,
2013-05-20 03:15:00,49.6,36.7,29.91,SW,230,0.0,0.0,61,0.00,CLR,,0.00,WeatherDisplay:10.37,2013-05-19 17:15:00,
2013-05-20 03:20:00,49.6,36.7,29.90,WSW,250,0.0,0.0,61,0.00,CLR,,0.00,WeatherDisplay:10.37,2013-05-19 17:20:00,
2013-05-20 03:25:00,49.5,36.6,29.90,WSW,244,0.0,0.0,61,0.00,CLR,,0.00,WeatherDisplay:10.37,2013-05-19 17:25:00,
2013-05-20 03:30:00,49.3,36.8,29.90,SW,220,0.0,0.0,62,0.00,CLR,,0.00,WeatherDisplay:10.37,2013-05-19 17:30:00,
2013-05-20 03:35:00,49.2,36.7,29.90,SSW,207,0.0,0.0,62,0.00,CLR,,0.00,WeatherDisplay:10.37,2013-05-19 17:35:00,
2013-05-20 03:40:00,48.9,36.5,29.90,SSW,210,0.0,0.0,62,0.00,CLR,,0.00,WeatherDisplay:10.37,2013-05-19 17:40:00,
2013-05-20 03:45:00,48.9,36.5,29.90,SW,222,0.0,0.0,62,0.00,CLR,,0.00,WeatherDisplay:10.37,2013-05-19 17:45:00,
2013-05-20 03:50:00,48.8,36.4,29.91,WSW,239,0.0,0.0,62,0.00,CLR,,0.00,WeatherDisplay:10.37,2013-05-19 17:50:00,
2013-05-20 03:55:00,48.9,36.4,29.91,WSW,250,0.0,0.0,62,0.00,CLR,,0.00,WeatherDisplay:10.37,2013-05-19 17:55:00,
2013-05-20 04:00:00,48.7,36.3,29.91,WSW,249,0.0,0.0,62,0.00,CLR,,0.00,WeatherDisplay:10.37,2013-05-19 18:00:00,
2013-05-20 04:05:00,48.7,36.3,29.90,WSW,257,0.0,0.0,62,0.00,CLR,,0.00,WeatherDisplay:10.37,2013-05-19 18:05:00,
2013-05-20 04:10:00,48.7,36.7,29.91,WSW,249,0.0,0.0,63,0.00,CLR,,0.00,WeatherDisplay:10.37,2013-05-19 18:10:00,
2013-05-20 04:15:00,48.7,36.7,29.91,WSW,256,0.0,0.0,63,0.00,CLR,,0.00,WeatherDisplay:10.37,2013-05-19 18:15:00,
2013-05-20 04:20:00,48.7,36.7,29.91,West,273,0.0,0.0,63,0.00,CLR,,0.00,WeatherDisplay:10.37,2013-05-19 18:20:00,
2013-05-20 04:25:00,48.7,36.7,29.91,WSW,251,0.0,0.0,63,0.00,CLR,,0.00,WeatherDisplay:10.37,2013-05-19 18:25:00,
2013-05-20 04:30:00,48.7,36.7,29.92,SW,230,0.0,0.0,63,0.00,CLR,,0.00,WeatherDisplay:10.37,2013-05-19 18:30:00,
2013-05-20 04:35:00,48.7,36.7,29.92,SW,229,0.0,0.0,63,0.00,CLR,,0.00,WeatherDisplay:10.37,2013-05-19 18:35:00,
2013-05-20 04:40:00,48.7,36.7,29.92,SW,236,0.0,0.0,63,0.00,CLR,,0.00,WeatherDisplay:10.37,2013-05-19 18:40:00,
2013-05-20 04:45:00,48.7,36.7,29.92,WSW,237,0.0,0.0,63,0.00,CLR,,0.00,WeatherDisplay:10.37,2013-05-19 18:45:00,
2013-05-20 04:50:00,48.7,36.7,29.91,SW,234,0.0,0.0,63,0.00,CLR,,0.00,WeatherDisplay:10.37,2013-05-19 18:50:00,
2013-05-20 04:55:00,48.6,36.5,29.92,SW,233,0.0,0.0,63,0.00,CLR,,0.00,WeatherDisplay:10.37,2013-05-19 18:55:00,
2013-05-20 05:00:00,48.6,36.5,29.92,SW,235,0.0,0.0,63,0.00,CLR,,0.00,WeatherDisplay:10.37,2013-05-19 19:00:00,
2013-05-20 05:05:00,48.6,36.5,29.92,SW,235,0.0,0.0,63,0.00,CLR,,0.00,WeatherDisplay:10.37,2013-05-19 19:05:00,
2013-05-20 05:10:00,48.6,36.9,29.92,SW,229,0.0,0.0,64,0.00,CLR,,0.00,WeatherDisplay:10.37,2013-05-19 19:10:00,
2013-05-20 05:15:00,48.6,36.9,29.92,SW,231,0.0,0.0,64,0.00,CLR,,0.00,WeatherDisplay:10.37,2013-05-19 19:15:00,
2013-05-20 05:20:00,48.6,36.9,29.92,WSW,237,0.0,0.0,64,0.00,CLR,,0.00,WeatherDisplay:10.37,2013-05-19 19:20:00,
2013-05-20 05:25:00,48.6,36.9,29.93,WSW,238,0.0,0.0,64,0.00,CLR,,0.00,WeatherDisplay:10.37,2013-05-19 19:25:00,
2013-05-20 05:30:00,48.6,37.0,29.93,SW,233,0.0,0.0,64,0.00,CLR,,0.00,WeatherDisplay:10.37,2013-05-19 19:30:00,
2013-05-20 05:35:00,48.7,37.1,29.92,SW,234,0.0,0.0,64,0.00,CLR,,0.00,WeatherDisplay:10.37,2013-05-19 19:35:00,
2013-05-20 05:40:00,48.7,37.1,29.93,WSW,238,0.0,0.0,64,0.00,CLR,,0.00,WeatherDisplay:10.37,2013-05-19 19:40:00,
2013-05-20 05:45:00,48.6,37.0,29.93,SW,236,0.0,0.0,64,0.00,CLR,,0.00,WeatherDisplay:10.37,2013-05-19 19:45:00,
2013-05-20 05:50:00,48.6,36.9,29.93,SW,236,0.0,0.0,64,0.00,CLR,,0.00,WeatherDisplay:10.37,2013-05-19 19:50:00,
2013-05-20 05:55:00,48.6,36.9,29.93,SW,230,0.0,0.0,64,0.00,CLR,,0.00,WeatherDisplay:10.37,2013-05-19 19:55:00,
2013-05-20 06:00:00,48.5,36.9,29.93,WSW,239,0.0,0.0,64,0.00,CLR,,0.00,WeatherDisplay:10.37,2013-05-19 20:00:00,
2013-05-20 06:05:00,48.6,36.9,29.93,WSW,246,0.0,0.0,64,0.00,CLR,,0.00,WeatherDisplay:10.37,2013-05-19 20:05:00,
2013-05-20 06:10:00,48.6,36.9,29.93,WSW,242,0.0,0.0,64,0.00,CLR,,0.00,WeatherDisplay:10.37,2013-05-19 20:10:00,
2013-05-20 06:15:00,48.4,36.8,29.93,SW,229,0.0,0.0,64,0.00,CLR,,0.00,WeatherDisplay:10.37,2013-05-19 20:15:00,
2013-05-20 06:20:00,48.4,36.8,29.93,SW,225,0.0,0.0,64,0.00,CLR,,0.00,WeatherDisplay:10.37,2013-05-19 20:20:00,
2013-05-20 06:25:00,48.2,36.6,29.94,WSW,244,0.0,0.0,64,0.00,CLR,,0.00,WeatherDisplay:10.37,2013-05-19 20:25:00,
2013-05-20 06:30:00,48.0,36.4,29.94,WSW,242,0.0,0.0,64,0.00,CLR,,0.00,WeatherDisplay:10.37,2013-05-19 20:30:00,
2013-05-20 06:35:00,48.0,36.4,29.94,SW,225,0.0,0.0,64,0.00,CLR,,0.00,WeatherDisplay:10.37,2013-05-19 20:35:00,
2013-05-20 06:40:00,47.8,36.2,29.94,SW,225,0.0,0.0,64,0.00,CLR,,0.00,WeatherDisplay:10.37,2013-05-19 20:40:00,
2013-05-20 06:45:00,47.8,36.2,29.95,SW,225,0.0,0.0,64,0.00,CLR,,0.00,WeatherDisplay:10.37,2013-05-19 20:45:00,
2013-05-20 06:50:00,47.7,36.1,29.94,SW,230,0.0,0.0,64,0.00,CLR,,0.00,WeatherDisplay:10.37,2013-05-19 20:50:00,
2013-05-20 06:55:00,47.7,36.5,29.95,WSW,241,0.0,0.0,65,0.00,CLR,,0.00,WeatherDisplay:10.37,2013-05-19 20:55:00,
2013-05-20 07:00:00,47.8,36.6,29.95,WSW,248,0.0,0.0,65,0.00,CLR,,0.00,WeatherDisplay:10.37,2013-05-19 21:00:00,
2013-05-20 07:05:00,47.8,36.6,29.95,WSW,248,0.0,0.0,65,0.00,CLR,,0.00,WeatherDisplay:10.37,2013-05-19 21:05:00,
2013-05-20 07:10:00,47.8,36.6,29.96,WSW,248,0.0,0.0,65,0.00,CLR,,0.00,WeatherDisplay:10.37,2013-05-19 21:10:00,
2013-05-20 07:15:00,47.8,36.6,29.96,WSW,249,0.0,0.0,65,0.00,CLR,,0.00,WeatherDisplay:10.37,2013-05-19 21:15:00,
2013-05-20 07:20:00,48.0,36.8,29.96,WSW,249,0.0,0.0,65,0.00,CLR,,0.00,WeatherDisplay:10.37,2013-05-19 21:20:00,
2013-05-20 07:25:00,48.0,36.8,29.96,West,278,0.0,0.0,65,0.00,CLR,,0.00,WeatherDisplay:10.37,2013-05-19 21:25:00,
2013-05-20 07:30:00,48.0,36.8,29.96,NNW,346,0.0,0.0,65,0.00,CLR,,0.00,WeatherDisplay:10.37,2013-05-19 21:30:00,
2013-05-20 07:35:00,48.3,37.5,29.96,North,0,0.0,0.0,66,0.00,CLR,,0.00,WeatherDisplay:10.37,2013-05-19 21:35:00,
2013-05-20 07:40:00,48.4,37.2,29.96,North,0,0.0,0.0,65,0.00,CLR,,0.00,WeatherDisplay:10.37,2013-05-19 21:40:00,
2013-05-20 07:45:00,48.6,37.3,29.96,NW,323,0.0,0.0,65,0.00,CLR,,0.00,WeatherDisplay:10.37,2013-05-19 21:45:00,
2013-05-20 07:50:00,48.7,37.9,29.97,WNW,288,0.0,0.0,66,0.00,CLR,,0.00,WeatherDisplay:10.37,2013-05-19 21:50:00,
2013-05-20 07:55:00,48.9,37.7,29.97,NW,323,0.0,0.0,65,0.00,CLR,,0.00,WeatherDisplay:10.37,2013-05-19 21:55:00,
2013-05-20 08:00:00,49.3,38.0,29.97,North,356,0.0,0.0,65,0.00,CLR,,0.00,WeatherDisplay:10.37,2013-05-19 22:00:00,
2013-05-20 08:05:00,49.8,38.9,29.97,North,2,0.0,0.0,66,0.00,CLR,,0.00,WeatherDisplay:10.37,2013-05-19 22:05:00,
2013-05-20 08:10:00,50.1,38.8,29.97,NNW,346,0.0,0.0,65,0.00,CLR,,0.00,WeatherDisplay:10.37,2013-05-19 22:10:00,
2013-05-20 08:15:00,50.5,39.2,29.97,NNW,337,0.0,0.0,65,0.00,CLR,,0.00,WeatherDisplay:10.37,2013-05-19 22:15:00,
2013-05-20 08:20:00,50.9,39.6,29.97,North,349,0.0,0.0,65,0.00,CLR,,0.00,WeatherDisplay:10.37,2013-05-19 22:20:00,
2013-05-20 08:25:00,51.5,40.1,29.97,North,350,0.0,3.0,65,0.00,CLR,,0.00,WeatherDisplay:10.37,2013-05-19 22:25:00,
2013-05-20 08:30:00,52.0,40.1,29.97,NNW,348,0.0,0.0,64,0.00,CLR,,0.00,WeatherDisplay:10.37,2013-05-19 22:30:00,
2013-05-20 08:35:00,52.3,40.5,29.97,NNW,341,0.0,0.0,64,0.00,CLR,,0.00,WeatherDisplay:10.37,2013-05-19 22:35:00,
2013-05-20 08:40:00,52.8,40.6,29.98,NNW,343,0.0,4.0,63,0.00,CLR,,0.00,WeatherDisplay:10.37,2013-05-19 22:40:00,
2013-05-20 08:45:00,53.2,41.0,29.98,North,356,0.0,4.0,63,0.00,CLR,,0.00,WeatherDisplay:10.37,2013-05-19 22:45:00,
2013-05-20 08:50:00,53.8,41.1,29.98,North,349,0.0,0.0,62,0.00,CLR,,0.00,WeatherDisplay:10.37,2013-05-19 22:50:00,
2013-05-20 08:55:00,54.3,41.6,29.97,NNW,336,0.0,0.0,62,0.00,CLR,,0.00,WeatherDisplay:10.37,2013-05-19 22:55:00,
2013-05-20 09:00:00,54.8,41.6,29.97,NNW,334,0.0,5.0,61,0.00,CLR,,0.00,WeatherDisplay:10.37,2013-05-19 23:00:00,
2013-05-20 09:06:00,55.2,41.6,29.97,North,353,0.0,5.0,60,0.00,CLR,,0.00,WeatherDisplay:10.37,2013-05-19 23:06:00,
2013-05-20 09:15:00,56.4,42.2,29.97,NW,319,0.0,4.0,59,0.00,CLR,,0.00,WeatherDisplay:10.37,2013-05-19 23:15:00,
2013-05-20 09:20:00,56.8,42.2,29.97,NW,307,0.0,4.0,58,0.00,CLR,,0.00,WeatherDisplay:10.37,2013-05-19 23:20:00,
2013-05-20 09:25:00,57.2,42.5,29.97,WNW,297,0.0,2.0,58,0.00,CLR,,0.00,WeatherDisplay:10.37,2013-05-19 23:25:00,
2013-05-20 09:30:00,57.7,42.5,29.98,NNW,338,0.0,3.0,57,0.00,CLR,,0.00,WeatherDisplay:10.37,2013-05-19 23:30:00,
2013-05-20 09:35:00,57.9,42.8,29.97,NNW,331,0.0,0.0,57,0.00,CLR,,0.00,WeatherDisplay:10.37,2013-05-19 23:35:00,
2013-05-20 09:40:00,58.3,42.7,29.97,NW,326,0.0,2.0,56,0.00,CLR,,0.00,WeatherDisplay:10.37,2013-05-19 23:40:00,
2013-05-20 09:45:00,58.7,43.0,29.97,NNW,335,0.0,2.0,56,0.00,CLR,,0.00,WeatherDisplay:10.37,2013-05-19 23:45:00,
2013-05-20 09:50:00,59.0,42.8,29.97,NW,318,1.0,5.0,55,0.00,CLR,,0.00,WeatherDisplay:10.37,2013-05-19 23:50:00,
2013-05-20 09:55:00,59.5,43.3,29.97,NW,305,0.0,2.0,55,0.00,CLR,,0.00,WeatherDisplay:10.37,2013-05-19 23:55:00,
2013-05-20 10:00:00,59.8,43.6,29.96,NW,319,0.0,2.0,55,0.00,CLR,,0.00,WeatherDisplay:10.37,2013-05-20 00:00:00,
2013-05-20 10:05:00,60.4,43.7,29.96,NW,314,0.0,3.0,54,0.00,CLR,,0.00,WeatherDisplay:10.37,2013-05-20 00:05:00,
2013-05-20 10:10:00,60.6,43.9,29.96,NW,320,0.0,2.0,54,0.00,CLR,,0.00,WeatherDisplay:10.37,2013-05-20 00:10:00,
2013-05-20 10:15:00,61.1,43.8,29.95,NNW,328,0.0,2.0,53,0.00,CLR,,0.00,WeatherDisplay:10.37,2013-05-20 00:15:00,
2013-05-20 10:20:00,61.6,44.3,29.95,NNW,330,1.0,5.0,53,0.00,CLR,,0.00,WeatherDisplay:10.37,2013-05-20 00:20:00,
2013-05-20 10:25:00,61.9,44.1,29.95,NW,306,0.0,4.0,52,0.00,CLR,,0.00,WeatherDisplay:10.37,2013-05-20 00:25:00,
2013-05-20 10:30:00,62.3,44.5,29.95,WNW,288,0.0,3.0,52,0.00,CLR,,0.00,WeatherDisplay:10.37,2013-05-20 00:30:00,
2013-05-20 10:35:00,62.8,44.9,29.95,WNW,300,0.0,3.0,52,0.00,CLR,,0.00,WeatherDisplay:10.37,2013-05-20 00:35:00,
2013-05-20 10:40:00,63.1,44.7,29.95,WNW,296,0.0,2.0,51,0.00,CLR,,0.00,WeatherDisplay:10.37,2013-05-20 00:40:00,
2013-05-20 10:45:00,63.6,45.1,29.94,WNW,285,1.0,3.0,51,0.00,CLR,,0.00,WeatherDisplay:10.37,2013-05-20 00:45:00,
2013-05-20 10:50:00,63.7,44.7,29.94,West,272,3.0,7.0,50,0.00,CLR,,0.00,WeatherDisplay:10.37,2013-05-20 00:50:00,
2013-05-20 10:55:00,63.7,44.2,29.94,WNW,283,0.0,7.0,49,0.00,CLR,,0.00,WeatherDisplay:10.37,2013-05-20 00:55:00,
2013-05-20 11:00:00,64.0,44.5,29.94,WNW,286,0.0,4.0,49,0.00,CLR,,0.00,WeatherDisplay:10.37,2013-05-20 01:00:00,
2013-05-20 11:05:00,64.2,45.2,29.94,West,277,1.0,4.0,50,0.00,CLR,,0.00,WeatherDisplay:10.37,2013-05-20 01:05:00,
2013-05-20 11:10:00,64.6,45.0,29.93,WNW,295,0.0,5.0,49,0.00,CLR,,0.00,WeatherDisplay:10.37,2013-05-20 01:10:00,
2013-05-20 11:15:00,64.8,45.2,29.93,WNW,299,0.0,3.0,49,0.00,CLR,,0.00,WeatherDisplay:10.37,2013-05-20 01:15:00,
2013-05-20 11:20:00,65.1,44.9,29.93,West,276,0.0,4.0,48,0.00,CLR,,0.00,WeatherDisplay:10.37,2013-05-20 01:20:00,
2013-05-20 11:25:00,65.4,45.2,29.92,WNW,284,0.0,2.0,48,0.00,CLR,,0.00,WeatherDisplay:10.37,2013-05-20 01:25:00,
2013-05-20 11:30:00,65.8,45.6,29.92,NW,305,0.0,1.0,48,0.00,CLR,,0.00,WeatherDisplay:10.37,2013-05-20 01:30:00,
2013-05-20 11:35:00,66.0,45.8,29.92,NW,317,0.0,4.0,48,0.00,CLR,,0.00,WeatherDisplay:10.37,2013-05-20 01:35:00,
2013-05-20 11:40:00,66.2,45.4,29.92,NNW,331,0.0,3.0,47,0.00,CLR,,0.00,WeatherDisplay:10.37,2013-05-20 01:40:00,
2013-05-20 11:45:00,66.5,45.7,29.92,NNW,332,0.0,3.0,47,0.00,CLR,,0.00,WeatherDisplay:10.37,2013-05-20 01:45:00,
2013-05-20 11:50:00,66.7,45.9,29.92,NW,306,1.0,5.0,47,0.00,CLR,,0.00,WeatherDisplay:10.37,2013-05-20 01:50:00,
2013-05-20 11:55:00,67.1,45.6,29.92,NW,306,1.0,4.0,46,0.00,CLR,,0.00,WeatherDisplay:10.37,2013-05-20 01:55:00,
2013-05-20 12:00:00,67.3,45.8,29.91,WNW,290,0.0,3.0,46,0.00,CLR,,0.00,WeatherDisplay:10.37,2013-05-20 02:00:00,
2013-05-20 12:05:00,67.6,46.1,29.91,West,263,1.0,5.0,46,0.00,CLR,,0.00,WeatherDisplay:10.37,2013-05-20 02:05:00,
2013-05-20 12:10:00,67.8,45.7,29.91,West,274,1.0,7.0,45,0.00,CLR,,0.00,WeatherDisplay:10.37,2013-05-20 02:10:00,
2013-05-20 12:15:00,67.8,45.7,29.91,West,276,0.0,3.0,45,0.00,CLR,,0.00,WeatherDisplay:10.37,2013-05-20 02:15:00,
2013-05-20 12:20:00,68.2,46.0,29.90,West,268,0.0,5.0,45,0.00,CLR,,0.00,WeatherDisplay:10.37,2013-05-20 02:20:00,
2013-05-20 12:25:00,68.4,46.2,29.91,WNW,283,1.0,8.0,45,0.00,CLR,,0.00,WeatherDisplay:10.37,2013-05-20 02:25:00,
2013-05-20 12:30:00,68.5,45.8,29.90,West,266,1.0,8.0,44,0.00,CLR,,0.00,WeatherDisplay:10.37,2013-05-20 02:30:00,
2013-05-20 12:35:00,68.7,44.6,29.90,West,265,2.0,7.0,42,0.00,CLR,,0.00,WeatherDisplay:10.37,2013-05-20 02:35:00,
2013-05-20 12:40:00,68.7,44.7,29.89,WSW,258,2.0,8.0,42,0.00,CLR,,0.00,WeatherDisplay:10.37,2013-05-20 02:40:00,
2013-05-20 12:45:00,68.7,44.7,29.89,WSW,255,2.0,7.0,42,0.00,CLR,,0.00,WeatherDisplay:10.37,2013-05-20 02:45:00,
2013-05-20 12:50:00,68.7,44.7,29.89,WSW,247,3.0,7.0,42,0.00,CLR,,0.00,WeatherDisplay:10.37,2013-05-20 02:50:00,
2013-05-20 12:55:00,68.9,44.2,29.89,SW,233,3.0,6.0,41,0.00,CLR,,0.00,WeatherDisplay:10.37,2013-05-20 02:55:00,
2013-05-20 13:00:00,68.9,44.2,29.89,WSW,242,5.0,12.0,41,0.00,CLR,,0.00,WeatherDisplay:10.37,2013-05-20 03:00:00,
2013-05-20 13:05:00,69.1,44.4,29.89,WSW,246,3.0,7.0,41,0.00,CLR,,0.00,WeatherDisplay:10.37,2013-05-20 03:05:00,
2013-05-20 13:10:00,69.3,44.6,29.88,WSW,252,1.0,3.0,41,0.00,CLR,,0.00,WeatherDisplay:10.37,2013-05-20 03:10:00,
2013-05-20 13:15:00,69.4,44.7,29.88,West,267,1.0,7.0,41,0.00,CLR,,0.00,WeatherDisplay:10.37,2013-05-20 03:15:00,
2013-05-20 13:20:00,69.6,44.9,29.88,WSW,254,1.0,6.0,41,0.00,CLR,,0.00,WeatherDisplay:10.37,2013-05-20 03:20:00,
2013-05-20 13:25:00,69.9,45.1,29.88,SW,234,2.0,6.0,41,0.00,CLR,,0.00,WeatherDisplay:10.37,2013-05-20 03:25:00,
2013-05-20 13:30:00,70.0,45.2,29.88,WSW,243,0.0,6.0,41,0.00,CLR,,0.00,WeatherDisplay:10.37,2013-05-20 03:30:00,
2013-05-20 13:35:00,70.2,45.4,29.87,West,266,0.0,5.0,41,0.00,CLR,,0.00,WeatherDisplay:10.37,2013-05-20 03:35:00,
2013-05-20 13:40:00,70.2,45.4,29.87,West,265,2.0,6.0,41,0.00,CLR,,0.00,WeatherDisplay:10.37,2013-05-20 03:40:00,
2013-05-20 13:45:00,70.0,45.2,29.87,WSW,257,1.0,6.0,41,0.00,CLR,,0.00,WeatherDisplay:10.37,2013-05-20 03:45:00,
2013-05-20 13:50:00,70.0,45.2,29.87,WSW,249,0.0,6.0,41,0.00,CLR,,0.00,WeatherDisplay:10.37,2013-05-20 03:50:00,
2013-05-20 13:55:00,70.3,45.5,29.86,WSW,238,5.0,9.0,41,0.00,CLR,,0.00,WeatherDisplay:10.37,2013-05-20 03:55:00,
2013-05-20 14:00:00,70.4,45.6,29.86,SW,229,1.0,11.0,41,0.00,CLR,,0.00,WeatherDisplay:10.37,2013-05-20 04:00:00,
2013-05-20 14:05:00,70.5,45.7,29.86,SW,229,1.0,10.0,41,0.00,CLR,,0.00,WeatherDisplay:10.37,2013-05-20 04:05:00,
2013-05-20 14:10:00,70.5,45.7,29.86,WSW,242,1.0,8.0,41,0.00,CLR,,0.00,WeatherDisplay:10.37,2013-05-20 04:10:00,
2013-05-20 14:15:00,70.5,45.7,29.86,WSW,242,2.0,6.0,41,0.00,CLR,,0.00,WeatherDisplay:10.37,2013-05-20 04:15:00,
2013-05-20 14:20:00,70.5,45.7,29.85,SW,234,1.0,9.0,41,0.00,CLR,,0.00,WeatherDisplay:10.37,2013-05-20 04:20:00,
2013-05-20 14:25:00,70.5,45.0,29.85,SW,234,1.0,4.0,40,0.00,CLR,,0.00,WeatherDisplay:10.37,2013-05-20 04:25:00,
2013-05-20 14:30:00,70.5,45.0,29.85,SW,231,1.0,7.0,40,0.00,CLR,,0.00,WeatherDisplay:10.37,2013-05-20 04:30:00,
2013-05-20 14:35:00,70.3,45.5,29.86,SW,226,0.0,6.0,41,0.00,CLR,,0.00,WeatherDisplay:10.37,2013-05-20 04:35:00,
2013-05-20 14:40:00,70.3,45.5,29.86,SW,219,3.0,10.0,41,0.00,CLR,,0.00,WeatherDisplay:10.37,2013-05-20 04:40:00,
2013-05-20 14:45:00,70.2,45.4,29.86,SSW,201,2.0,6.0,41,0.00,CLR,,0.00,WeatherDisplay:10.37,2013-05-20 04:45:00,
2013-05-20 14:50:00,70.1,45.3,29.86,SSW,200,0.0,5.0,41,0.00,CLR,,0.00,WeatherDisplay:10.37,2013-05-20 04:50:00,
2013-05-20 14:55:00,70.0,45.8,29.86,SSW,212,0.0,5.0,42,0.00,CLR,,0.00,WeatherDisplay:10.37,2013-05-20 04:55:00,
2013-05-20 15:00:00,69.6,45.5,29.85,SSW,206,0.0,6.0,42,0.00,CLR,,0.00,WeatherDisplay:10.37,2013-05-20 05:00:00,
2013-05-20 15:05:00,69.4,46.0,29.85,SSW,210,0.0,3.0,43,0.00,CLR,,0.00,WeatherDisplay:10.37,2013-05-20 05:05:00,
2013-05-20 15:10:00,68.8,45.4,29.85,SSW,209,0.0,5.0,43,0.00,CLR,,0.00,WeatherDisplay:10.37,2013-05-20 05:10:00,
2013-05-20 15:15:00,68.5,45.1,29.86,SSW,202,0.0,2.0,43,0.00,CLR,,0.00,WeatherDisplay:10.37,2013-05-20 05:15:00,
2013-05-20 15:20:00,68.2,45.4,29.86,SSW,200,0.0,0.0,44,0.00,CLR,,0.00,WeatherDisplay:10.37,2013-05-20 05:20:00,
2013-05-20 15:25:00,67.8,45.7,29.85,SSW,200,0.0,0.0,45,0.00,CLR,,0.00,WeatherDisplay:10.37,2013-05-20 05:25:00,
2013-05-20 15:30:00,67.6,45.5,29.85,SSW,211,0.0,0.0,45,0.00,CLR,,0.00,WeatherDisplay:10.37,2013-05-20 05:30:00,
2013-05-20 15:35:00,67.3,45.8,29.85,SSW,212,0.0,0.0,46,0.00,CLR,,0.00,WeatherDisplay:10.37,2013-05-20 05:35:00,
2013-05-20 15:40:00,66.9,45.5,29.85,SSW,203,0.0,0.0,46,0.00,CLR,,0.00,WeatherDisplay:10.37,2013-05-20 05:40:00,
2013-05-20 15:45:00,66.8,45.9,29.85,SSW,205,0.0,0.0,47,0.00,CLR,,0.00,WeatherDisplay:10.37,2013-05-20 05:45:00,
2013-05-20 15:50:00,66.7,46.4,29.85,SSW,197,0.0,0.0,48,0.00,CLR,,0.00,WeatherDisplay:10.37,2013-05-20 05:50:00,
2013-05-20 15:55:00,66.6,46.3,29.85,SSW,210,0.0,2.0,48,0.00,CLR,,0.00,WeatherDisplay:10.37,2013-05-20 05:55:00,
2013-05-20 16:00:00,66.2,45.9,29.85,SW,216,0.0,2.0,48,0.00,CLR,,0.00,WeatherDisplay:10.37,2013-05-20 06:00:00,
2013-05-20 16:05:00,66.0,45.8,29.85,SW,220,0.0,4.0,48,0.00,CLR,,0.00,WeatherDisplay:10.37,2013-05-20 06:05:00,
2013-05-20 16:10:00,66.0,45.8,29.85,SW,236,0.0,3.0,48,0.00,CLR,,0.00,WeatherDisplay:10.37,2013-05-20 06:10:00,
2013-05-20 16:15:00,65.8,45.6,29.85,WSW,244,1.0,4.0,48,0.00,CLR,,0.00,WeatherDisplay:10.37,2013-05-20 06:15:00,
2013-05-20 16:20:00,65.5,45.3,29.85,SW,227,1.0,2.0,48,0.00,CLR,,0.00,WeatherDisplay:10.37,2013-05-20 06:20:00,
2013-05-20 16:25:00,65.3,45.1,29.85,WSW,240,0.0,3.0,48,0.00,CLR,,0.00,WeatherDisplay:10.37,2013-05-20 06:25:00,
2013-05-20 16:30:00,65.1,44.9,29.85,WSW,250,0.0,0.0,48,0.00,CLR,,0.00,WeatherDisplay:10.37,2013-05-20 06:30:00,
2013-05-20 16:35:00,64.9,45.3,29.85,WSW,239,0.0,0.0,49,0.00,CLR,,0.00,WeatherDisplay:10.37,2013-05-20 06:35:00,
2013-05-20 16:40:00,64.9,45.3,29.85,WSW,243,0.0,0.0,49,0.00,CLR,,0.00,WeatherDisplay:10.37,2013-05-20 06:40:00,
2013-05-20 16:45:00,64.6,45.5,29.85,WSW,242,0.0,0.0,50,0.00,CLR,,0.00,WeatherDisplay:10.37,2013-05-20 06:45:00,
2013-05-20 16:50:00,64.2,45.2,29.85,SW,217,0.0,0.0,50,0.00,CLR,,0.00,WeatherDisplay:10.37,2013-05-20 06:50:00,
2013-05-20 16:55:00,64.0,45.5,29.85,SSW,202,0.0,0.0,51,0.00,CLR,,0.00,WeatherDisplay:10.37,2013-05-20 06:55:00,
2013-05-20 17:00:00,63.7,45.7,29.85,SSW,204,0.0,0.0,52,0.00,CLR,,0.00,WeatherDisplay:10.37,2013-05-20 07:00:00,
2013-05-20 17:05:00,63.3,45.4,29.85,SSW,203,0.0,0.0,52,0.00,CLR,,0.00,WeatherDisplay:10.37,2013-05-20 07:05:00,
2013-05-20 17:10:00,63.1,45.7,29.85,SSW,202,0.0,0.0,53,0.00,CLR,,0.00,WeatherDisplay:10.37,2013-05-20 07:10:00,
2013-05-20 17:15:00,62.8,45.4,29.85,SSW,202,0.0,0.0,53,0.00,CLR,,0.00,WeatherDisplay:10.37,2013-05-20 07:15:00,
2013-05-20 17:25:00,62.2,45.4,29.86,SSW,207,0.0,0.0,54,0.00,CLR,,0.00,WeatherDisplay:10.37,2013-05-20 07:25:00,
2013-05-20 17:30:00,61.7,44.9,29.86,SSW,208,0.0,0.0,54,0.00,CLR,,0.00,WeatherDisplay:10.37,2013-05-20 07:30:00,
2013-05-20 17:35:00,61.5,45.1,29.86,SSW,203,0.0,0.0,55,0.00,CLR,,0.00,WeatherDisplay:10.37,2013-05-20 07:35:00,
2013-05-20 17:40:00,61.2,44.9,29.86,SSW,202,0.0,0.0,55,0.00,CLR,,0.00,WeatherDisplay:10.37,2013-05-20 07:40:00,
2013-05-20 17:45:00,61.0,45.2,29.86,SSW,202,0.0,0.0,56,0.00,CLR,,0.00,WeatherDisplay:10.37,2013-05-20 07:45:00,
2013-05-20 17:50:00,60.8,45.0,29.86,SSW,206,0.0,0.0,56,0.00,CLR,,0.00,WeatherDisplay:10.37,2013-05-20 07:50:00,
2013-05-20 17:55:00,60.6,44.8,29.86,SSW,205,0.0,0.0,56,0.00,CLR,,0.00,WeatherDisplay:10.37,2013-05-20 07:55:00,
2013-05-20 18:00:00,60.4,44.7,29.86,SSW,201,0.0,0.0,56,0.00,CLR,,0.00,WeatherDisplay:10.37,2013-05-20 08:00:00,
2013-05-20 18:05:00,60.1,44.8,29.86,SSW,202,0.0,0.0,57,0.00,CLR,,0.00,WeatherDisplay:10.37,2013-05-20 08:05:00,
2013-05-20 18:10:00,60.1,44.8,29.86,SSW,202,0.0,0.0,57,0.00,CLR,,0.00,WeatherDisplay:10.37,2013-05-20 08:10:00,
2013-05-20 18:15:00,59.8,44.5,29.87,SSW,209,0.0,0.0,57,0.00,CLR,,0.00,WeatherDisplay:10.37,2013-05-20 08:15:00,
2013-05-20 18:20:00,59.7,44.9,29.86,SW,217,0.0,0.0,58,0.00,CLR,,0.00,WeatherDisplay:10.37,2013-05-20 08:20:00,
2013-05-20 18:25:00,59.5,44.7,29.87,SSW,209,0.0,0.0,58,0.00,CLR,,0.00,WeatherDisplay:10.37,2013-05-20 08:25:00,
2013-05-20 18:30:00,59.5,44.7,29.87,SSW,202,0.0,0.0,58,0.00,CLR,,0.00,WeatherDisplay:10.37,2013-05-20 08:30:00,
2013-05-20 18:35:00,59.4,45.0,29.87,SSW,202,0.0,0.0,59,0.00,CLR,,0.00,WeatherDisplay:10.37,2013-05-20 08:35:00,
2013-05-20 18:40:00,59.2,44.9,29.87,SSW,202,0.0,0.0,59,0.00,CLR,,0.00,WeatherDisplay:10.37,2013-05-20 08:40:00,
2013-05-20 18:45:00,59.2,44.9,29.87,SSW,202,0.0,0.0,59,0.00,CLR,,0.00,WeatherDisplay:10.37,2013-05-20 08:45:00,
2013-05-20 18:50:00,59.0,44.7,29.87,SSW,202,0.0,0.0,59,0.00,CLR,,0.00,WeatherDisplay:10.37,2013-05-20 08:50:00,
2013-05-20 18:55:00,58.8,44.5,29.87,SSW,204,0.0,0.0,59,0.00,CLR,,0.00,WeatherDisplay:10.37,2013-05-20 08:55:00,
2013-05-20 19:00:00,58.6,44.3,29.87,SSW,204,0.0,0.0,59,0.00,CLR,,0.00,WeatherDisplay:10.37,2013-05-20 09:00:00,
2013-05-20 19:05:00,58.4,44.5,29.87,SSW,209,0.0,0.0,60,0.00,CLR,,0.00,WeatherDisplay:10.37,2013-05-20 09:05:00,
2013-05-20 19:10:00,58.3,44.4,29.87,SSW,205,0.0,0.0,60,0.00,CLR,,0.00,WeatherDisplay:10.37,2013-05-20 09:10:00,
2013-05-20 19:15:00,58.1,44.3,29.86,SSW,199,0.0,0.0,60,0.00,CLR,,0.00,WeatherDisplay:10.37,2013-05-20 09:15:00,
2013-05-20 19:20:00,58.1,44.3,29.87,SSW,201,0.0,0.0,60,0.00,CLR,,0.00,WeatherDisplay:10.37,2013-05-20 09:20:00,
2013-05-20 19:25:00,57.9,44.1,29.87,SSW,202,0.0,0.0,60,0.00,CLR,,0.00,WeatherDisplay:10.37,2013-05-20 09:25:00,
2013-05-20 19:30:00,57.8,44.0,29.87,South,188,0.0,0.0,60,0.00,CLR,,0.00,WeatherDisplay:10.37,2013-05-20 09:30:00,
2013-05-20 19:56:00,57.0,44.1,29.87,SE,129,0.0,0.0,62,0.00,CLR,,0.00,WeatherDisplay:10.37,2013-05-20 09:56:00,
2013-05-20 20:05:00,56.8,44.0,29.87,SE,127,0.0,0.0,62,0.00,CLR,,0.00,WeatherDisplay:10.37,2013-05-20 10:05:00,
2013-05-20 20:10:00,56.6,43.7,29.88,SSE,152,0.0,0.0,62,0.00,CLR,,0.00,WeatherDisplay:10.37,2013-05-20 10:10:00,
2013-05-20 20:15:00,56.5,43.6,29.88,South,186,0.0,0.0,62,0.00,CLR,,0.00,WeatherDisplay:10.37,2013-05-20 10:15:00,
2013-05-20 20:20:00,56.3,43.4,29.88,SSW,207,0.0,0.0,62,0.00,CLR,,0.00,WeatherDisplay:10.37,2013-05-20 10:20:00,
2013-05-20 20:25:00,56.2,43.3,29.88,SSW,211,0.0,0.0,62,0.00,CLR,,0.00,WeatherDisplay:10.37,2013-05-20 10:25:00,
2013-05-20 20:30:00,56.1,43.3,29.88,SW,219,0.0,0.0,62,0.00,CLR,,0.00,WeatherDisplay:10.37,2013-05-20 10:30:00,
2013-05-20 20:35:00,56.1,43.7,29.89,SW,225,0.0,0.0,63,0.00,CLR,,0.00,WeatherDisplay:10.37,2013-05-20 10:35:00,
2013-05-20 20:40:00,56.1,43.7,29.88,SW,225,0.0,0.0,63,0.00,CLR,,0.00,WeatherDisplay:10.37,2013-05-20 10:40:00,
2013-05-20 20:45:00,56.1,43.3,29.89,SW,217,0.0,0.0,62,0.00,CLR,,0.00,WeatherDisplay:10.37,2013-05-20 10:45:00,
2013-05-20 20:50:00,56.1,43.3,29.89,SW,215,0.0,0.0,62,0.00,CLR,,0.00,WeatherDisplay:10.37,2013-05-20 10:50:00,
2013-05-20 20:55:00,55.9,43.5,29.89,SW,220,0.0,0.0,63,0.00,CLR,,0.00,WeatherDisplay:10.37,2013-05-20 10:55:00,
2013-05-20 21:15:00,55.9,43.5,29.90,SW,221,0.0,0.0,63,0.00,CLR,,0.00,WeatherDisplay:10.37,2013-05-20 11:15:00,
2013-05-20 21:20:00,55.9,43.1,29.90,SW,224,0.0,0.0,62,0.00,CLR,,0.00,WeatherDisplay:10.37,2013-05-20 11:20:00,
2013-05-20 21:31:00,55.9,43.0,29.89,SSW,202,0.0,0.0,62,0.00,CLR,,0.00,WeatherDisplay:10.37,2013-05-20 11:31:00,
2013-05-20 21:41:00,55.6,43.2,29.90,SSW,199,0.0,0.0,63,0.00,CLR,,0.00,WeatherDisplay:10.37,2013-05-20 11:41:00,
2013-05-20 21:50:00,55.6,43.2,29.90,SW,230,0.0,0.0,63,0.00,CLR,,0.00,WeatherDisplay:10.37,2013-05-20 11:50:00,
2013-05-20 21:55:00,55.4,43.0,29.89,West,259,0.0,0.0,63,0.00,CLR,,0.00,WeatherDisplay:10.37,2013-05-20 11:55:00,
2013-05-20 22:00:00,55.4,43.0,29.89,West,264,0.0,0.0,63,0.00,CLR,,0.00,WeatherDisplay:10.37,2013-05-20 12:00:00,
2013-05-20 22:05:00,55.4,43.0,29.90,West,260,0.0,0.0,63,0.00,CLR,,0.00,WeatherDisplay:10.37,2013-05-20 12:05:00,
2013-05-20 22:10:00,55.2,42.8,29.89,SW,222,0.0,0.0,63,0.00,CLR,,0.00,WeatherDisplay:10.37,2013-05-20 12:10:00,
2013-05-20 22:15:00,55.2,42.8,29.89,SSW,208,0.0,0.0,63,0.00,CLR,,0.00,WeatherDisplay:10.37,2013-05-20 12:15:00,
2013-05-20 22:20:00,55.2,42.8,29.90,SW,216,0.0,0.0,63,0.00,CLR,,0.00,WeatherDisplay:10.37,2013-05-20 12:20:00,
2013-05-20 22:25:00,55.0,42.7,29.90,SW,235,0.0,0.0,63,0.00,CLR,,0.00,WeatherDisplay:10.37,2013-05-20 12:25:00,
2013-05-20 22:30:00,55.0,42.7,29.90,West,262,0.0,0.0,63,0.00,CLR,,0.00,WeatherDisplay:10.37,2013-05-20 12:30:00,
2013-05-20 22:35:00,55.0,42.7,29.90,WSW,253,0.0,0.0,63,0.00,CLR,,0.00,WeatherDisplay:10.37,2013-05-20 12:35:00,
2013-05-20 22:40:00,54.9,42.5,29.90,SW,218,0.0,0.0,63,0.00,CLR,,0.00,WeatherDisplay:10.37,2013-05-20 12:40:00,
2013-05-20 22:45:00,54.7,42.7,29.90,SSW,202,0.0,0.0,64,0.00,CLR,,0.00,WeatherDisplay:10.37,2013-05-20 12:45:00,
2013-05-20 22:50:00,54.5,42.6,29.89,SSW,202,0.0,0.0,64,0.00,CLR,,0.00,WeatherDisplay:10.37,2013-05-20 12:50:00,
2013-05-20 22:55:00,54.3,42.4,29.89,SSW,203,0.0,0.0,64,0.00,CLR,,0.00,WeatherDisplay:10.37,2013-05-20 12:55:00,
2013-05-20 23:00:00,54.2,42.3,29.89,SSW,203,0.0,0.0,64,0.00,CLR,,0.00,WeatherDisplay:10.37,2013-05-20 13:00:00,
2013-05-20 23:05:00,54.1,42.2,29.89,SSW,202,0.0,0.0,64,0.00,CLR,,0.00,WeatherDisplay:10.37,2013-05-20 13:05:00,
2013-05-20 23:10:00,54.0,42.1,29.90,South,185,0.0,0.0,64,0.00,CLR,,0.00,WeatherDisplay:10.37,2013-05-20 13:10:00,
2013-05-20 23:15:00,54.0,42.1,29.90,SE,133,0.0,0.0,64,0.00,CLR,,0.00,WeatherDisplay:10.37,2013-05-20 13:15:00,
2013-05-20 23:20:00,54.0,42.1,29.90,SE,140,0.0,0.0,64,0.00,CLR,,0.00,WeatherDisplay:10.37,2013-05-20 13:20:00,
2013-05-20 23:25:00,53.8,41.9,29.89,South,184,0.0,0.0,64,0.00,CLR,,0.00,WeatherDisplay:10.37,2013-05-20 13:25:00,
2013-05-20 23:30:00,53.8,41.9,29.89,SSW,199,0.0,0.0,64,0.00,CLR,,0.00,WeatherDisplay:10.37,2013-05-20 13:30:00,
2013-05-20 23:35:00,53.5,41.6,29.88,SSW,205,0.0,0.0,64,0.00,CLR,,0.00,WeatherDisplay:10.37,2013-05-20 13:35:00,
2013-05-20 23:40:00,53.4,41.9,29.88,SW,214,0.0,0.0,65,0.00,CLR,,0.00,WeatherDisplay:10.37,2013-05-20 13:40:00,
2013-05-20 23:45:00,53.4,41.9,29.89,West,272,0.0,0.0,65,0.00,CLR,,0.00,WeatherDisplay:10.37,2013-05-20 13:45:00,
2013-05-20 23:50:00,53.4,41.9,29.89,WNW,293,0.0,0.0,65,0.00,CLR,,0.00,WeatherDisplay:10.37,2013-05-20 13:50:00,
2013-05-20 23:55:00,53.4,41.9,29.89,West,270,0.0,0.0,65,0.00,CLR,,0.00,WeatherDisplay:10.37,2013-05-20 13:55:00,